Coventry, VT

8:20 AM EST on December 11, 2016 (GMT -0500)
Newport State

Weather History for KEFK - November, 2012

Change the Weather History Date:

Thursday, November 22, 2012

  Actual Average Record
Temperature  
Mean Temperature 43 °F -  
Max Temperature 56 °F 36 °F 67 °F (1953)
Min Temperature 30 °F 23 °F 3 °F (1972)
Degree Days  
Heating Degree Days 22    
Moisture  
Dew Point 24 °F    
Average Humidity 50    
Maximum Humidity 74    
Minimum Humidity 26    
Precipitation  
Precipitation 0.00 in - - ()
Sea Level Pressure  
Sea Level Pressure 30.16 in    
Wind  
Wind Speed 6 mph (South)    
Max Wind Speed 10 mph    
Max Gust Speed -    
Visibility 10 miles    
Events      
Averages and records for this station are not official NWS values.
T = Trace of Precipitation, MM = Missing Value Source: NWS Daily Summary

Daily Weather History Graph

Daily Weather History Graph

Search for Another Location

Airport or City:

Trip Planner

Search our weather history database for the weather conditions in past years. The results will help you decide how hot, cold, wet, or windy it might be!

Date:

Astronomy

Nov. 22, 2012 Rise Set
Actual Time 6:56 AM EST 4:13 PM EST
Civil Twilight 6:23 AM EST 4:46 PM EST
Nautical Twilight 5:47 AM EST 5:22 PM EST
Astronomical Twilight 5:12 AM EST 5:57 PM EST
Moon 1:09 PM EST (11/22) 12:59 AM EST (11/22)
Length of Visible Light 10h 22m
Length of Day
9h 17m
Waxing Gibbous, 71% of the Moon is Illuminated
Nov 22
Waxing Gibbous
Nov 28
Full
Dec 6
Last Quarter
Dec 13
New
Dec 20
First Quarter

Hourly Weather History & Observations

Time (EST) Temp. Windchill Dew Point Humidity Pressure Visibility Wind Dir Wind Speed Gust Speed Precip Events Conditions
12:15 AM 32.4 °F 26.0 °F 22.1 °F 66% 30.21 in 10.0 mi SSW 6.9 mph - N/A   Clear
12:35 AM 31.6 °F 24.4 °F 22.1 °F 68% 30.21 in 10.0 mi SW 8.1 mph - N/A   Clear
12:55 AM 32.7 °F 27.3 °F 22.1 °F 65% 30.21 in 10.0 mi SSW 5.8 mph - N/A   Clear
1:15 AM 32.7 °F 27.3 °F 21.6 °F 64% 30.21 in 10.0 mi South 5.8 mph - N/A   Clear
1:35 AM 36.1 °F 33.5 °F 21.7 °F 56% 30.21 in 10.0 mi South 3.5 mph - N/A   Clear
1:55 AM 34.9 °F 30.8 °F 21.7 °F 59% 30.22 in 10.0 mi South 4.6 mph - N/A   Clear
2:15 AM 32.4 °F 26.9 °F 22.1 °F 66% 30.21 in 10.0 mi South 5.8 mph - N/A   Clear
2:35 AM 37.4 °F 32.1 °F 22.1 °F 54% 30.22 in 10.0 mi South 6.9 mph - N/A   Clear
2:55 AM 37.8 °F 33.3 °F 22.6 °F 54% 30.22 in 10.0 mi South 5.8 mph - N/A   Clear
3:15 AM 36.1 °F 30.6 °F 22.8 °F 58% 30.21 in 10.0 mi South 6.9 mph - N/A   Clear
3:35 AM 36.7 °F 31.2 °F 22.6 °F 57% 30.20 in 10.0 mi South 6.9 mph - N/A   Clear
3:55 AM 34.0 °F 27.2 °F 23.2 °F 65% 30.20 in 10.0 mi South 8.1 mph - N/A   Clear
4:15 AM 35.2 °F 29.5 °F 23.7 °F 63% 30.21 in 10.0 mi SSW 6.9 mph - N/A   Clear
4:35 AM 36.1 °F 30.6 °F 24.4 °F 63% 30.21 in 10.0 mi South 6.9 mph - N/A   Clear
4:55 AM 31.8 °F 26.2 °F 22.5 °F 68% 30.22 in 10.0 mi SW 5.8 mph - N/A   Clear
5:15 AM 32.0 °F 25.6 °F 23.0 °F 69% 30.22 in 10.0 mi SSW 6.9 mph - N/A   Clear
5:35 AM 32.0 °F 25.6 °F 22.6 °F 68% 30.22 in 10.0 mi SSW 6.9 mph - N/A   Clear
5:55 AM 31.3 °F 25.6 °F 22.6 °F 70% 30.22 in 10.0 mi SSW 5.8 mph - N/A   Clear
6:15 AM 30.7 °F 24.1 °F 22.8 °F 72% 30.22 in 10.0 mi SSW 6.9 mph - N/A   Clear
6:35 AM 30.4 °F 22.9 °F 22.5 °F 72% 30.22 in 10.0 mi SSW 8.1 mph - N/A   Clear
6:55 AM 30.0 °F 22.4 °F 22.6 °F 74% 30.22 in 10.0 mi SSW 8.1 mph - N/A   Clear
7:15 AM 30.0 °F 24.1 °F 22.6 °F 74% 30.22 in 10.0 mi SSW 5.8 mph - N/A   Clear
7:35 AM 30.2 °F 24.3 °F 22.8 °F 74% 30.23 in 10.0 mi SSW 5.8 mph - N/A   Clear
7:55 AM 30.9 °F 24.3 °F 23.5 °F 74% 30.22 in 10.0 mi SSW 6.9 mph - N/A   Clear
8:15 AM 32.0 °F 25.6 °F 24.3 °F 73% 30.22 in 10.0 mi SW 6.9 mph - N/A   Clear
8:35 AM 34.0 °F 28.8 °F 25.3 °F 71% 30.22 in 10.0 mi SSW 5.8 mph - N/A   Clear
8:55 AM 36.0 °F 33.3 °F 26.1 °F 67% 30.22 in 10.0 mi SW 3.5 mph - N/A   Clear
9:15 AM 39.9 °F 37.8 °F 27.3 °F 61% 30.22 in 10.0 mi South 3.5 mph - N/A   Clear
9:35 AM 43.2 °F 40.5 °F 27.0 °F 53% 30.21 in 10.0 mi South 4.6 mph - N/A   Clear
9:55 AM 44.2 °F 40.3 °F 27.9 °F 53% 30.21 in 10.0 mi South 6.9 mph - N/A   Clear
10:15 AM 46.0 °F 43.1 °F 28.4 °F 50% 30.20 in 10.0 mi SSW 5.8 mph - N/A   Clear
10:35 AM 46.6 °F - 27.7 °F 48% 30.20 in 10.0 mi SSW 4.6 mph - N/A   Clear
10:55 AM 48.9 °F - 27.5 °F 43% 30.19 in 10.0 mi South 4.6 mph - N/A   Clear
11:15 AM 49.6 °F - 27.3 °F 42% 30.18 in 10.0 mi SSW 4.6 mph - N/A   Clear
11:35 AM 50.9 °F - 26.8 °F 39% 30.17 in 10.0 mi SSW 5.8 mph - N/A   Clear
11:55 AM 51.4 °F - 27.1 °F 39% 30.17 in 10.0 mi SSW 5.8 mph - N/A   Clear
12:15 PM 52.7 °F - 26.2 °F 36% 30.16 in 10.0 mi SSW 5.8 mph - N/A   Clear
12:35 PM 53.6 °F - 25.7 °F 34% 30.16 in 10.0 mi SSW 6.9 mph - N/A   Clear
12:55 PM 54.7 °F - 24.4 °F 31% 30.15 in 10.0 mi SSW 6.9 mph - N/A   Clear
1:15 PM 55.4 °F - 23.7 °F 29% 30.14 in 10.0 mi SSW 5.8 mph - N/A   Clear
1:35 PM 55.8 °F - 23.2 °F 28% 30.13 in 10.0 mi SSE 8.1 mph - N/A   Clear
1:55 PM 56.3 °F - 23.2 °F 28% 30.12 in 10.0 mi South 5.8 mph - N/A   Clear
2:15 PM 56.3 °F - 21.7 °F 26% 30.12 in 10.0 mi South 9.2 mph - N/A   Clear
2:35 PM 55.6 °F - 22.1 °F 27% 30.11 in 10.0 mi SSE 8.1 mph - N/A   Clear
2:55 PM 54.7 °F - 22.5 °F 29% 30.11 in 10.0 mi SSE 9.2 mph - N/A   Clear
3:15 PM 53.8 °F - 23.5 °F 31% 30.11 in 10.0 mi SSE 5.8 mph - N/A   Clear
3:35 PM 53.2 °F - 23.0 °F 31% 30.11 in 10.0 mi SSE 5.8 mph - N/A   Clear
3:55 PM 50.5 °F - 24.8 °F 37% 30.11 in 10.0 mi SSE 6.9 mph - N/A   Clear
4:15 PM 45.9 °F 42.3 °F 26.1 °F 46% 30.11 in 10.0 mi SSE 6.9 mph - N/A   Clear
4:35 PM 48.2 °F - 25.7 °F 42% 30.11 in 10.0 mi SSE 9.2 mph - N/A   Clear
4:55 PM 47.5 °F - 25.7 °F 43% 30.11 in 10.0 mi SSE 9.2 mph - N/A   Clear
5:15 PM 44.2 °F 38.8 °F 25.7 °F 48% 30.11 in 10.0 mi SE 10.4 mph - N/A   Clear
5:35 PM 45.3 °F 40.6 °F 25.9 °F 47% 30.11 in 10.0 mi SSE 9.2 mph - N/A   Clear
5:55 PM 42.1 °F 37.7 °F 26.1 °F 53% 30.11 in 10.0 mi SSE 6.9 mph - N/A   Clear
6:15 PM 41.7 °F 38.0 °F 26.4 °F 55% 30.10 in 10.0 mi South 5.8 mph - N/A   Clear
6:35 PM 44.6 °F 40.7 °F 25.3 °F 47% 30.10 in 10.0 mi South 6.9 mph - N/A   Clear
6:55 PM 45.9 °F 42.3 °F 24.6 °F 43% 30.09 in 10.0 mi South 6.9 mph - N/A   Clear
7:15 PM 46.4 °F 42.9 °F 23.7 °F 41% 30.09 in 10.0 mi South 6.9 mph - N/A   Clear
7:35 PM 45.9 °F 42.9 °F 23.4 °F 41% 30.09 in 10.0 mi South 5.8 mph - N/A   Clear
7:55 PM 45.7 °F 43.4 °F 22.8 °F 41% 30.09 in 10.0 mi South 4.6 mph - N/A   Clear
8:55 PM 45.3 °F 41.6 °F 21.7 °F 39% 30.08 in 10.0 mi South 6.9 mph - N/A   Clear
9:15 PM 45.5 °F 41.8 °F 20.8 °F 38% 30.08 in 10.0 mi South 6.9 mph - N/A   Clear
9:35 PM 46.2 °F 42.7 °F 19.4 °F 34% 30.07 in 10.0 mi South 6.9 mph - N/A   Clear
9:55 PM 44.8 °F 41.0 °F 20.5 °F 38% 30.06 in 10.0 mi South 6.9 mph - N/A   Clear
10:15 PM 44.8 °F 40.4 °F 19.4 °F 36% 30.06 in 10.0 mi South 8.1 mph - N/A   Clear
10:35 PM 44.8 °F 41.6 °F 18.9 °F 36% 30.05 in 10.0 mi South 5.8 mph - N/A   Clear
10:55 PM 44.6 °F 41.4 °F 18.5 °F 35% 30.05 in 10.0 mi South 5.8 mph - N/A   Clear
11:15 PM 43.7 °F 39.7 °F 20.1 °F 39% 30.05 in 10.0 mi SSE 6.9 mph - N/A   Clear
11:35 PM 39.6 °F 35.4 °F 21.0 °F 48% 30.03 in 10.0 mi South 5.8 mph - N/A   Clear
11:55 PM 42.8 °F 39.3 °F 19.8 °F 40% 30.03 in 10.0 mi South 5.8 mph - N/A   Clear